EW7347 Weather Reports


time (UTC)temp
C
wind
direction
speed
KPH
gust
KPH
rain 1hr
cm
rain 24hr
cm
rain mn
cm
humidity
%
barometer
mb
20260502160242 20 269 0.0 0.0 0.00 0.00 0.00 54 1010.9
20260502151908 20 146 0.0 0.0 0.00 0.00 0.00 55 1011.6
20260502150807 20 136 0.0 0.0 0.00 0.00 0.00 53 1011.7
20260502150300 20 119 0.0 0.0 0.00 0.00 0.00 53 1011.8
20260502130638 21 60 0.0 0.0 0.00 0.00 0.00 51 1013.3
20260502130118 21 265 0.0 0.0 0.00 0.00 0.00 52 1013.5
20260502122753 20 273 0.0 11.3 0.00 0.00 0.00 56 1013.7
20260502122236 20 273 0.0 3.2 0.00 0.00 0.00 54 1013.8
20260502121737 19 266 0.0 0.0 0.00 0.00 0.00 56 1013.8
20260502121245 18 272 0.0 3.2 0.00 0.00 0.00 56 1013.8
20260502120752 18 295 0.0 0.0 0.00 0.00 0.00 57 1014.0
20260502120236 19 317 0.0 1.6 0.00 0.00 0.00 55 1014.0
20260502115737 19 333 0.0 0.0 0.00 0.00 0.00 54 1014.1
20260502115231 19 259 0.0 0.0 0.00 0.00 0.00 56 1014.3
20260502114721 19 269 0.0 11.3 0.00 0.00 0.00 57 1014.4
20260502114226 19 267 0.0 0.0 0.00 0.00 0.00 55 1014.5
20260502113103 19 258 0.0 0.0 0.00 0.00 0.00 56 1014.5
20260502112547 18 268 0.0 0.0 0.00 0.00 0.00 57 1014.5
20260502112037 18 258 0.0 0.0 0.00 0.00 0.00 56 1014.4
20260502111544 18 273 0.0 0.0 0.00 0.00 0.00 60 1014.5
20260502111037 18 252 0.0 0.0 0.00 0.00 0.00 60 1014.6
20260502110533 18 271 0.0 0.0 0.00 0.00 0.00 59 1014.7
20260502110022 18 263 0.0 0.0 0.00 0.00 0.00 61 1015.0
20260502105518 18 265 0.0 4.8 0.00 0.00 0.00 60 1015.0
20260502104959 18 273 0.0 3.2 0.00 0.00 0.00 61 1015.2
20260502104453 18 273 0.0 0.0 0.00 0.00 0.00 58 1015.1
20260502103946 18 276 0.0 0.0 0.00 0.00 0.00 59 1015.0
20260502103444 18 269 0.0 1.6 0.00 0.00 0.00 59 1015.1
20260502102944 18 273 0.0 8.0 0.00 0.00 0.00 59 1015.2
20260502101330 18 279 0.0 0.0 0.00 0.00 0.00 60 1015.0
20260502100814 18 269 0.0 4.8 0.00 0.00 0.00 63 1015.0
20260502100255 18 274 0.0 4.8 0.00 0.00 0.00 61 1015.1
20260502091414 16 265 0.0 0.0 0.00 0.00 0.00 71 1015.7
20260502090914 16 276 0.0 0.0 0.00 0.00 0.00 70 1015.7
20260502071315 11 240 0.0 0.0 0.00 0.00 0.00 94 1016.3
20260502070759 10 282 0.0 0.0 0.00 0.00 0.00 95 1016.3
20260502070259 10 273 0.0 0.0 0.00 0.00 0.00 95 1016.3
20260502065753 10 273 0.0 0.0 0.00 0.00 0.00 95 1016.4
20260502065242 10 273 0.0 0.0 0.00 0.00 0.00 95 1016.3
20260502064740 10 273 0.0 0.0 0.00 0.00 0.00 95 1016.3
20260502064226 10 269 0.0 0.0 0.00 0.00 0.00 95 1016.3
20260502063725 10 269 0.0 0.0 0.00 0.00 0.00 95 1016.3
20260502063205 10 269 0.0 0.0 0.00 0.00 0.00 95 1016.1
20260502062701 10 250 0.0 3.2 0.00 0.00 0.00 95 1016.1
20260502062155 10 265 0.0 0.0 0.00 0.00 0.00 95 1016.1
20260502061657 10 265 0.0 0.0 0.00 0.00 0.00 95 1016.2
20260502061158 10 267 0.0 4.8 0.00 0.00 0.00 95 1016.2
20260502060701 10 264 0.0 3.2 0.00 0.00 0.00 95 1016.2
20260502060157 10 269 0.0 0.0 0.00 0.00 0.00 94 1016.1
20260502054411 9 281 0.0 0.0 0.00 0.00 0.00 94 1016.0
20260502053859 9 281 0.0 0.0 0.00 0.00 0.00 94 1016.1
20260502053400 9 267 0.0 0.0 0.00 0.00 0.00 94 1016.1
20260502052856 9 267 0.0 0.0 0.00 0.00 0.00 94 1016.0
20260502052404 9 267 0.0 0.0 0.00 0.00 0.00 94 1016.0
20260502051235 9 267 0.0 0.0 0.00 0.00 0.00 94 1015.9
20260502050725 9 267 0.0 0.0 0.00 0.00 0.00 93 1015.8
20260502050218 9 269 0.0 0.0 0.00 0.00 0.00 94 1015.9
20260502045702 9 269 0.0 1.6 0.00 0.00 0.00 94 1015.9
20260502045205 9 240 0.0 0.0 0.00 0.00 0.00 94 1015.9
20260502044651 9 254 0.0 0.0 0.00 0.00 0.00 93 1015.9
20260502044150 9 254 0.0 0.0 0.00 0.00 0.00 93 1015.9
20260502043632 9 254 0.0 0.0 0.00 0.00 0.00 93 1015.9
20260502043137 9 254 0.0 0.0 0.00 0.00 0.00 93 1015.9
20260502042632 9 254 0.0 0.0 0.00 0.00 0.00 93 1015.9
20260502042136 9 254 0.0 0.0 0.00 0.00 0.00 93 1015.9
20260502041620 9 254 0.0 0.0 0.00 0.00 0.00 93 1015.9
20260502041115 9 254 0.0 0.0 0.00 0.00 0.00 92 1015.9
20260502040612 9 254 0.0 0.0 0.00 0.00 0.00 92 1015.9
20260502040100 9 268 0.0 0.0 0.00 0.00 0.00 92 1016.0
20260502035551 9 268 0.0 0.0 0.00 0.00 0.00 92 1016.1
20260502035034 9 268 0.0 0.0 0.00 0.00 0.00 92 1016.1
20260502034519 9 268 0.0 0.0 0.00 0.00 0.00 92 1016.2
20260502034021 9 268 0.0 0.0 0.00 0.00 0.00 92 1016.1
20260502033531 9 268 0.0 0.0 0.00 0.00 0.00 92 1016.2
20260502032404 9 268 0.0 0.0 0.00 0.00 0.00 91 1016.3
20260502030634 9 269 0.0 0.0 0.00 0.00 0.00 90 1016.2
20260502030128 10 269 0.0 0.0 0.00 0.00 0.00 90 1016.2
20260502025618 10 269 0.0 0.0 0.00 0.00 0.00 90 1016.3
20260502025110 10 269 0.0 0.0 0.00 0.00 0.00 89 1016.3
20260502024551 10 269 0.0 0.0 0.00 0.00 0.00 89 1016.3
20260502024040 10 269 0.0 0.0 0.00 0.00 0.00 89 1016.4
20260502023528 10 269 0.0 0.0 0.00 0.00 0.00 89 1016.4
20260502023013 10 269 0.0 0.0 0.00 0.00 0.00 89 1016.4
20260502022500 10 269 0.0 0.0 0.00 0.00 0.00 89 1016.4
20260502022007 10 269 0.0 0.0 0.00 0.00 0.00 89 1016.3
20260502021509 10 269 0.0 0.0 0.00 0.00 0.00 88 1016.4
20260502020959 10 269 0.0 0.0 0.00 0.00 0.00 88 1016.3
20260502020504 10 269 0.0 0.0 0.00 0.00 0.00 88 1016.4
20260502015944 10 269 0.0 0.0 0.00 0.00 0.00 88 1016.4
20260502015453 10 269 0.0 0.0 0.00 0.00 0.00 88 1016.4
20260502014938 11 269 0.0 0.0 0.00 0.00 0.00 88 1016.5
20260502014422 11 269 0.0 0.0 0.00 0.00 0.00 88 1016.6
20260502013909 11 269 0.0 0.0 0.00 0.00 0.00 88 1016.7
20260502013404 11 269 0.0 0.0 0.00 0.00 0.00 88 1016.7
20260502012903 11 269 0.0 0.0 0.00 0.00 0.00 87 1016.7
20260502012405 11 269 0.0 0.0 0.00 0.00 0.00 87 1016.8
20260502011902 11 269 0.0 0.0 0.00 0.00 0.00 87 1016.8
20260502010720 11 269 0.0 0.0 0.00 0.00 0.00 87 1016.9
20260502005529 12 279 0.0 0.0 0.00 0.00 0.00 86 1017.0
20260502005028 12 279 0.0 1.6 0.00 0.00 0.00 87 1017.1
20260502004521 12 265 0.0 0.0 0.00 0.00 0.00 87 1017.2
20260502004026 12 265 0.0 0.0 0.00 0.00 0.00 87 1017.2
20260502003529 12 265 0.0 1.6 0.00 0.00 0.00 87 1017.2
20260502003020 12 270 0.0 0.0 0.00 0.00 0.00 88 1017.2
20260502002505 12 293 0.0 0.0 0.00 0.00 0.00 88 1017.3
20260502001952 12 296 0.0 0.0 0.00 0.00 0.00 88 1017.2
20260502001502 12 284 0.0 0.0 0.00 0.00 0.00 88 1017.3
20260502000952 12 232 0.0 0.0 0.00 0.00 0.00 87 1017.3
20260502000440 12 231 0.0 0.0 0.00 0.00 0.00 87 1017.3
20260501235934 12 231 0.0 0.0 0.00 0.00 0.00 87 1017.2
20260501235420 12 231 0.0 0.0 0.00 0.00 0.00 87 1017.2
20260501234904 12 248 0.0 0.0 0.00 0.00 0.00 87 1017.3
20260501233748 12 248 0.0 0.0 0.00 0.00 0.00 86 1017.3
20260501233230 12 248 0.0 0.0 0.00 0.00 0.00 86 1017.3
20260501232734 12 248 0.0 0.0 0.00 0.00 0.00 85 1017.3
20260501232236 12 248 0.0 0.0 0.00 0.00 0.00 85 1017.3
20260501231743 12 248 0.0 0.0 0.00 0.00 0.00 84 1017.3
20260501231224 13 248 0.0 0.0 0.00 0.00 0.00 84 1017.3
20260501230720 13 248 0.0 0.0 0.00 0.00 0.00 84 1017.4
20260501230228 13 248 0.0 0.0 0.00 0.00 0.00 83 1017.4
20260501225733 13 248 0.0 0.0 0.00 0.00 0.00 83 1017.4
20260501225230 13 248 0.0 0.0 0.00 0.00 0.00 83 1017.4
20260501224728 13 248 0.0 0.0 0.00 0.00 0.00 83 1017.4
20260501223606 13 248 0.0 0.0 0.00 0.00 0.00 82 1017.5
20260501223103 13 248 0.0 0.0 0.00 0.00 0.00 82 1017.5
20260501221937 13 248 0.0 0.0 0.00 0.00 0.00 82 1017.3
20260501221434 13 248 0.0 0.0 0.00 0.00 0.00 82 1017.3
20260501220916 13 227 0.0 0.0 0.00 0.00 0.00 82 1017.4
20260501220425 13 227 0.0 0.0 0.00 0.00 0.00 82 1017.4
20260501215915 13 227 0.0 0.0 0.00 0.00 0.00 82 1017.4
20260501215425 13 227 0.0 0.0 0.00 0.00 0.00 82 1017.5
20260501214932 13 221 0.0 0.0 0.00 0.00 0.00 82 1017.5
20260501213134 13 203 0.0 0.0 0.00 0.00 0.00 82 1017.4
20260501212619 13 203 0.0 0.0 0.00 0.00 0.00 82 1017.5
20260501212128 13 203 0.0 0.0 0.00 0.00 0.00 82 1017.3
20260501211627 13 203 0.0 0.0 0.00 0.00 0.00 82 1017.3
20260501211126 13 202 0.0 0.0 0.00 0.00 0.00 82 1017.4
20260501210619 13 202 0.0 0.0 0.00 0.00 0.00 82 1017.4
20260501210115 13 269 0.0 0.0 0.00 0.00 0.00 81 1017.4
20260501205603 13 269 0.0 0.0 0.00 0.00 0.00 81 1017.4
20260501205103 13 269 0.0 0.0 0.00 0.00 0.00 81 1017.4
20260501204604 13 269 0.0 0.0 0.00 0.00 0.00 80 1017.3
20260501204059 13 269 0.0 0.0 0.00 0.00 0.00 80 1017.3
20260501203558 14 269 0.0 0.0 0.00 0.00 0.00 80 1017.3
20260501203101 14 269 0.0 0.0 0.00 0.00 0.00 80 1017.3
20260501201939 14 269 0.0 0.0 0.00 0.00 0.00 79 1017.3
20260501201435 14 270 0.0 0.0 0.00 0.00 0.00 78 1017.2
20260501200937 14 270 0.0 0.0 0.00 0.00 0.00 78 1017.3
20260501195817 15 270 0.0 0.0 0.00 0.00 0.00 77 1017.2
20260501195258 15 270 0.0 0.0 0.00 0.00 0.00 77 1017.1
20260501194757 15 270 0.0 0.0 0.00 0.00 0.00 77 1017.1
20260501194242 15 270 0.0 0.0 0.00 0.00 0.00 77 1017.1
20260501193725 15 270 0.0 0.0 0.00 0.00 0.00 77 1017.0
20260501193206 15 270 0.0 0.0 0.00 0.00 0.00 76 1017.0
20260501192646 15 271 0.0 0.0 0.00 0.00 0.00 76 1016.9
20260501192145 16 265 0.0 0.0 0.00 0.00 0.00 76 1016.9
20260501191652 16 254 0.0 1.6 0.00 0.00 0.00 76 1017.0
20260501191158 16 273 0.0 0.0 0.00 0.00 0.00 75 1017.0
20260501190655 16 279 0.0 0.0 0.00 0.00 0.00 75 1017.0
20260501184906 17 280 0.0 3.2 0.00 0.00 0.00 73 1016.9
20260501184404 17 283 0.0 3.2 0.00 0.00 0.00 73 1016.9
20260501183901 17 265 0.0 0.0 0.00 0.00 0.00 72 1016.8
20260501183355 17 263 0.0 4.8 0.00 0.00 0.00 71 1016.8
20260501182858 17 240 0.0 0.0 0.00 0.00 0.00 70 1016.8
20260501182339 18 262 0.0 0.0 0.00 0.00 0.00 69 1016.8
20260501181839 18 267 0.0 0.0 0.00 0.00 0.00 68 1016.8
20260501181345 18 271 0.0 0.0 0.00 0.00 0.00 67 1016.7
20260501180236 18 276 0.0 9.7 0.00 0.00 0.00 65 1016.6
20260501175728 19 263 0.0 0.0 0.00 0.00 0.00 63 1016.6
20260501174552 20 274 0.0 1.6 0.00 0.00 0.00 59 1016.6
20260501174046 20 259 0.0 3.2 0.00 0.00 0.00 58 1016.6
20260501173554 20 269 0.0 4.8 0.00 0.00 0.00 59 1016.5
20260501173040 20 282 0.0 0.0 0.00 0.00 0.00 59 1016.5
20260501172037 20 269 0.0 0.0 0.00 0.00 0.00 58 1016.4
20260501171524 21 260 0.0 11.3 0.00 0.00 0.00 57 1016.5
20260501171005 21 279 0.0 9.7 0.00 0.00 0.00 56 1016.5
20260501170459 21 267 0.0 3.2 0.00 0.00 0.00 57 1016.4
20260501165955 21 273 0.0 3.2 0.00 0.00 0.00 57 1016.4
20260501165442 21 270 0.0 0.0 0.00 0.00 0.00 58 1016.4
20260501164938 21 263 0.0 12.9 0.00 0.00 0.00 58 1016.3
20260501164440 21 272 0.0 14.5 0.00 0.00 0.00 57 1016.4
20260501163946 22 277 0.0 14.5 0.00 0.00 0.00 55 1016.3
20260501163432 22 281 0.0 14.5 0.00 0.00 0.00 54 1016.2
20260501162930 23 271 0.0 4.8 0.00 0.00 0.00 54 1016.1
20260501162427 23 123 0.0 12.9 0.00 0.00 0.00 53 1016.1
20260501161921 23 257 0.0 12.9 0.00 0.00 0.00 54 1016.0
20260501161424 23 288 0.0 12.9 0.00 0.00 0.00 53 1015.9
20260501160918 23 220 0.0 8.0 0.00 0.00 0.00 53 1015.9